Wetbulb
69.59 68.05 65.71 62.96 56.04 53.42 44.71 48.30 54.60 54.36 55.25 58.29 59.43 57.68 56.19 57.83 55.28 49.15 65.29 69.26 70.53 70.43 71.50 72.76 74.41 73.82 73.62 73.28 72.89 72.84 73.00 73.07 73.29 73.22 73.24 72.95 72.84 72.32 72.20 72.13 71.97 71.82 71.70 72.09 71.93 72.06 72.25 72.50 72.76
66.80 66.45 65.24 59.09 50.00 42.49 44.78 51.09 52.71 55.58 57.90 60.64 60.65 59.76 58.33 56.74 62.73 65.38 65.78 69.63 70.30 70.20 70.59 71.33 74.67 74.39 73.73 73.27 73.07 72.98 73.10 73.17 73.24 72.87 72.72 72.82 72.34 71.99 71.94 70.86 70.60 70.58 70.53 69.96 70.81 71.54 71.87 71.95 72.09
69.13 69.37 59.65 53.94 49.59 43.56 45.34 52.18 55.11 57.63 60.09 59.99 59.56 61.60 59.66 58.57 62.86 65.10 68.15 68.09 68.58 66.09 66.34 71.07 74.85 74.67 73.91 73.61 73.37 73.40 73.27 73.00 73.00 72.35 72.18 71.97 71.67 71.13 70.26 68.98 67.62 67.05 67.43 68.54 69.45 70.19 70.63 70.32 70.71
65.29 64.55 59.75 51.20 49.00 52.91 50.01 55.16 57.36 57.99 58.93 60.84 60.66 57.66 62.56 65.40 65.46 68.34 69.82 70.78 67.81 66.73 68.35 72.13 75.01 74.88 73.71 73.40 73.74 72.87 72.37 72.62 72.09 71.80 71.45 71.14 70.28 69.76 68.06 66.76 65.91 65.60 65.38 66.07 66.52 67.23 68.09 68.45 68.98
63.90 60.68 53.16 51.91 51.76 55.59 57.54 58.47 58.53 57.31 58.62 58.27 60.53 57.90 59.85 65.57 68.27 69.58 70.31 69.72 67.13 66.38 69.56 71.49 74.73 74.55 73.73 73.07 73.30 73.04 72.55 71.55 70.87 70.68 70.45 69.67 69.04 67.79 66.98 65.60 65.48 65.46 65.33 65.12 65.37 65.87 66.33 66.89 67.36
57.80 59.46 51.44 48.04 50.63 55.92 59.09 60.92 59.16 58.22 58.55 59.31 59.34 58.96 59.70 65.80 66.16 69.14 70.72 69.42 69.82 69.80 70.13 71.36 74.35 74.35 74.00 73.80 73.09 71.75 70.09 69.46 68.92 68.26 68.21 68.05 68.14 67.04 65.45 65.35 65.04 65.33 65.40 66.00 66.00 66.01 66.76 67.85 68.87
56.45 54.54 51.40 51.18 50.74 54.81 57.83 61.21 58.07 57.66 59.58 58.85 62.85 59.02 61.70 61.27 61.05 60.43 58.81 58.41 60.02 69.57 70.49 70.88 71.40 72.40 73.21 72.87 71.20 70.01 69.72 68.64 67.59 67.58 67.47 68.41 68.12 68.04 66.87 66.09 65.38 65.83 65.91 66.51 67.70 69.10 69.78 68.51 67.89
56.98 56.30 51.73 51.96 50.12 51.20 58.50 60.08 60.14 60.95 58.96 63.48 65.18 58.67 57.73 60.07 59.12 58.74 58.34 59.08 59.58 59.46 60.97 64.59 69.51 69.27 69.37 68.31 70.40 70.03 69.02 66.89 66.71 66.68 66.52 66.22 64.62 66.21 67.18 65.80 64.71 67.43 66.21 68.29 68.25 68.54 68.54 68.48 67.81
60.92 51.61 50.54 52.65 52.50 53.91 58.71 57.96 61.70 63.20 60.72 62.24 62.15 61.83 58.67 59.20 59.26 57.60 56.51 56.54 57.90 61.56 60.83 61.17 61.35 61.91 67.67 67.83 67.78 69.32 67.51 65.72 65.27 64.28 65.61 61.46 58.19 60.12 61.35 65.55 66.33 65.52 65.79 65.90 66.09 66.25 66.65 66.65 64.21
56.41 50.04 52.00 57.64 57.93 55.42 58.19 59.70 60.41 60.60 59.82 60.21 60.22 59.23 59.46 58.87 57.40 55.79 54.32 53.61 55.50 57.13 59.27 59.29 60.18 60.67 60.57 69.27 65.68 61.90 61.38 59.15 58.45 58.95 58.68 58.59 57.02 59.62 62.15 63.12 64.51 64.62 65.24 64.86 64.85 64.62 63.81 61.89 57.71
54.76 51.69 55.79 58.74 59.37 58.53 59.48 60.12 61.74 59.53 57.34 60.48 54.98 55.90 57.37 56.87 56.06 55.53 54.78 54.21 54.11 56.48 59.10 59.57 59.48 59.89 59.88 60.21 58.95 58.08 59.90 58.74 58.14 58.61 57.73 58.14 57.47 56.42 57.13 57.22 57.09 56.04 61.65 58.27 58.56 57.58 57.28 56.69 57.33
53.87 56.73 57.88 58.56 60.61 59.25 58.88 60.83 59.31 60.01 59.93 62.65 58.61 58.28 57.81 56.08 55.05 55.10 55.01 54.76 54.87 55.70 56.72 57.74 58.39 59.42 57.83 58.87 58.27 57.87 57.29 57.73 57.42 57.87 57.95 56.84 56.49 55.43 56.04 56.40 56.17 55.47 56.43 55.84 55.41 55.26 55.97 56.31 57.03
54.54 56.64 58.11 60.10 59.27 59.70 61.99 60.05 59.98 59.45 62.22 60.30 59.32 58.92 57.03 56.09 55.80 56.16 56.86 56.06 55.20 54.85 55.70 56.72 57.92 58.12 57.95 57.16 57.95 56.20 57.17 57.56 57.08 56.97 58.25 56.63 55.51 54.83 55.60 56.37 55.34 55.32 55.80 54.29 53.52 53.84 54.75 55.31 56.08
58.11 57.20 56.85 58.19 59.72 60.99 59.89 59.52 60.93 61.59 62.24 58.89 58.51 57.16 57.23 57.50 57.11 56.77 56.75 56.16 55.91 55.43 54.81 57.15 57.01 57.27 58.05 56.37 56.03 55.41 56.38 57.52 56.82 56.26 56.58 57.68 55.39 54.90 55.14 55.66 54.73 54.97 54.56 53.74 52.84 52.84 53.44 54.16 54.68
57.78 53.29 55.86 57.76 59.06 59.04 61.05 56.82 58.30 62.97 63.48 58.39 57.89 57.64 57.66 57.91 58.62 57.84 57.77 56.59 56.53 55.45 54.80 56.77 56.98 56.87 56.59 57.16 56.29 55.07 56.83 57.27 56.23 55.54 56.59 56.89 55.78 55.26 54.99 54.52 53.54 54.45 54.20 53.27 52.70 53.15 53.27 53.57 54.26
56.36 54.21 48.46 54.39 58.55 59.77 58.11 51.28 60.30 63.26 62.51 60.20 58.26 57.87 58.27 58.80 59.24 59.24 58.98 58.08 57.45 56.51 55.02 55.77 60.18 57.92 56.54 55.58 57.08 55.27 56.22 57.12 56.93 55.57 55.99 56.94 56.83 55.34 54.85 54.18 53.14 54.71 54.06 53.05 52.44 51.88 51.71 51.55 51.89
51.25 48.16 51.00 53.50 58.47 58.47 55.36 51.78 60.30 62.85 62.07 60.50 58.61 57.83 58.11 58.79 59.09 59.79 60.12 59.09 57.91 56.34 55.84 55.43 56.37 56.60 57.06 57.44 56.25 56.74 55.57 56.33 55.69 55.73 55.47 56.26 57.02 55.99 54.32 53.47 53.33 54.04 52.61 52.39 51.43 50.78 50.05 49.42 50.25
47.53 49.17 49.24 51.88 55.78 56.62 53.89 52.99 59.80 61.67 61.98 60.76 59.97 58.59 58.03 58.32 59.02 60.32 60.21 59.91 58.43 56.77 56.45 55.90 55.90 56.14 56.58 56.37 56.49 56.31 55.00 55.93 55.56 55.33 55.61 56.13 55.94 56.11 54.51 53.13 52.77 53.52 51.60 51.08 50.34 49.66 50.55 48.96 49.32
53.63 52.75 51.29 53.98 57.52 53.84 53.45 54.09 58.01 60.34 60.81 60.15 59.71 59.80 58.11 58.11 60.11 60.95 60.63 60.39 58.73 57.63 56.18 56.00 55.47 56.06 55.66 54.49 53.95 53.66 53.46 53.82 54.88 55.37 56.18 56.20 55.86 55.92 54.40 53.15 53.35 53.25 50.91 49.88 50.20 49.58 49.08 48.52 49.75
53.46 51.19 49.17 53.55 56.90 52.69 53.17 54.31 57.81 59.38 59.61 60.75 60.16 60.23 59.09 58.24 59.00 59.85 59.65 59.65 58.94 57.29 56.70 55.82 55.16 54.78 55.64 56.74 56.20 54.92 54.44 55.04 55.24 55.74 55.77 55.99 55.67 55.27 55.43 53.51 52.71 51.63 50.64 49.75 49.24 48.81 47.86 47.88 48.38
50.57 49.60 50.66 51.03 55.47 54.89 52.47 50.55 55.76 59.27 59.57 59.96 60.26 61.70 61.67 59.33 58.77 58.90 59.17 59.50 59.31 57.70 56.66 56.52 55.56 54.99 55.41 56.54 56.73 56.23 56.41 55.46 53.94 54.50 54.73 55.28 55.86 55.97 54.27 53.99 52.70 51.77 50.78 49.31 48.48 48.84 48.04 47.23 48.00
47.57 53.15 53.66 54.00 50.48 45.67 52.64 41.98 51.83 55.70 57.38 58.60 59.19 60.25 59.41 60.47 60.39 59.75 59.62 59.34 59.63 58.71 57.78 56.36 55.90 55.33 55.58 56.54 55.63 54.16 53.66 52.48 53.64 53.73 53.62 55.91 55.70 55.68 55.24 54.19 52.88 52.00 50.75 49.17 49.82 51.12 48.98 47.46 46.53
51.50 54.48 53.33 53.59 49.14 45.84 48.75 44.93 49.77 55.16 53.86 56.60 58.60 58.31 59.38 60.71 60.68 60.26 60.06 60.67 60.93 59.81 58.33 56.39 55.91 55.44 55.76 55.38 55.24 54.20 52.94 52.74 53.86 54.31 53.95 54.57 53.62 54.56 55.93 54.34 53.17 51.57 51.67 50.53 50.47 50.48 48.70 48.31 47.36
56.98 54.84 51.22 49.71 47.48 42.31 45.75 45.61 47.57 48.91 52.00 54.71 58.59 59.00 59.86 60.82 61.35 61.38 61.56 61.49 61.18 60.47 58.63 58.42 55.80 54.70 55.37 55.82 55.29 54.30 53.87 52.51 52.34 53.16 52.69 53.02 52.98 53.40 54.19 54.57 53.38 52.55 51.39 51.51 51.58 51.35 49.52 48.38 48.27
52.47 47.05 40.56 39.52 40.22 41.15 48.54 47.17 47.60 53.16 55.55 56.69 57.75 59.08 60.74 61.40 61.47 61.32 60.92 60.67 59.86 58.80 59.00 58.14 55.95 55.04 55.27 55.64 55.68 54.94 54.26 53.91 53.67 54.10 53.40 52.31 52.95 53.31 53.27 53.01 52.59 52.10 52.64 52.78 52.12 51.16 50.54 50.07 48.85
49.85 47.41 41.30 36.59 38.11 39.76 49.06 43.33 47.53 54.71 56.71 57.27 58.42 57.90 59.21 59.93 61.93 61.93 61.14 60.69 59.78 59.48 59.16 58.06 56.60 55.05 55.39 54.76 54.96 54.98 54.92 54.24 55.34 53.34 52.87 53.62 53.69 53.83 54.26 53.65 53.38 53.37 53.84 54.37 53.97 53.73 51.55 51.38 51.33
49.95 47.20 49.30 43.94 44.31 39.74 42.95 48.08 52.28 54.90 56.19 57.74 56.72 56.44 56.18 57.00 60.22 62.17 61.35 61.00 60.16 59.64 58.87 58.41 57.11 55.61 55.32 54.75 54.62 54.87 55.06 53.93 55.03 54.36 53.20 53.15 54.06 54.79 54.60 54.64 54.58 53.57 54.17 53.67 54.21 53.55 51.51 51.39 51.67
52.14 53.08 45.31 46.33 38.41 35.86 42.18 43.12 45.12 50.60 53.37 55.73 53.89 54.25 56.33 58.02 59.55 60.28 60.81 60.49 61.08 60.43 59.76 58.40 57.57 56.64 55.69 55.03 55.01 55.51 55.32 55.05 54.14 54.46 54.12 54.18 54.32 54.34 54.41 55.16 54.99 54.18 54.05 53.48 52.58 51.84 52.37 51.35 50.79
49.87 49.32 48.67 47.54 44.10 39.24 38.27 41.20 51.25 51.04 53.04 52.89 53.30 54.66 55.46 59.44 60.22 61.05 61.67 61.73 61.36 61.45 60.08 57.76 56.66 55.92 55.29 56.10 55.43 55.84 55.26 55.34 54.32 54.06 54.12 55.13 54.61 54.73 55.34 55.35 55.43 54.78 54.51 54.00 52.38 52.21 52.33 52.08 52.23
52.18 50.02 47.78 43.25 43.98 43.46 41.54 42.22 53.16 52.96 54.04 53.38 54.44 54.93 58.13 59.89 60.51 61.43 61.90 62.15 61.49 61.10 60.15 57.87 56.52 56.54 56.84 57.10 55.54 54.95 55.27 54.52 54.24 54.35 54.57 54.53 55.04 54.88 55.38 55.23 55.25 55.47 55.40 54.84 53.21 52.91 53.81 52.51 52.72
MSLP
1013.31 1013.38 1013.77 1013.87 1015.04 1015.49 1015.66 1015.62 1014.75 1014.58 1014.63 1014.82 1014.30 1014.73 1015.54 1015.80 1016.39 1017.97 1017.48 1017.73 1017.83 1017.69 1017.74 1017.79 1017.99 1018.04 1018.07 1018.23 1018.29 1018.37 1018.50 1018.48 1018.41 1018.46 1018.42 1018.34 1018.31 1018.31 1018.26 1018.12 1017.97 1017.75 1017.57 1017.41 1017.25 1017.01 1016.74 1016.56 1016.27
1012.52 1013.10 1013.61 1014.54 1015.55 1016.48 1016.18 1015.20 1014.86 1014.74 1014.81 1014.92 1014.84 1015.33 1015.51 1016.39 1016.56 1017.63 1018.02 1017.99 1017.79 1017.63 1017.75 1017.78 1017.93 1018.17 1018.18 1018.34 1018.41 1018.45 1018.48 1018.47 1018.45 1018.35 1018.35 1018.30 1018.27 1018.32 1018.31 1018.24 1018.15 1017.94 1017.68 1017.45 1017.24 1017.01 1016.89 1016.69 1016.45
1012.05 1012.33 1015.01 1016.73 1017.55 1016.95 1015.96 1015.61 1015.06 1015.17 1015.09 1014.70 1015.11 1015.55 1016.00 1016.54 1016.72 1017.64 1017.46 1017.59 1017.65 1017.71 1017.85 1017.88 1018.10 1018.24 1018.23 1018.31 1018.40 1018.52 1018.48 1018.49 1018.50 1018.44 1018.44 1018.45 1018.43 1018.44 1018.47 1018.40 1018.22 1017.98 1017.80 1017.69 1017.49 1017.25 1017.09 1016.85 1016.65
1012.54 1013.86 1016.60 1017.71 1018.20 1016.89 1015.53 1015.50 1015.09 1015.19 1015.28 1015.20 1015.33 1016.19 1016.45 1016.30 1016.69 1016.98 1017.43 1017.48 1017.41 1017.66 1017.91 1018.06 1018.31 1018.36 1018.37 1018.44 1018.49 1018.58 1018.59 1018.65 1018.63 1018.65 1018.60 1018.62 1018.59 1018.55 1018.59 1018.52 1018.37 1017.99 1017.81 1017.68 1017.52 1017.33 1017.11 1016.92 1016.68
1013.81 1015.92 1018.20 1019.11 1018.87 1018.02 1016.25 1015.69 1015.39 1015.68 1015.69 1016.14 1015.84 1016.68 1016.77 1016.55 1016.64 1017.37 1017.68 1017.53 1017.85 1018.19 1018.17 1018.26 1018.42 1018.53 1018.49 1018.51 1018.61 1018.67 1018.77 1018.90 1018.88 1018.87 1018.77 1018.71 1018.70 1018.72 1018.52 1018.43 1018.27 1018.04 1017.78 1017.60 1017.38 1017.10 1016.87 1016.72 1016.52
1015.42 1016.97 1019.46 1019.77 1019.41 1018.41 1017.57 1016.46 1015.91 1015.96 1016.41 1016.72 1016.61 1016.91 1017.09 1017.08 1017.37 1018.09 1018.11 1018.10 1018.16 1018.44 1018.35 1018.41 1018.57 1018.54 1018.66 1018.70 1018.86 1018.95 1019.07 1019.15 1019.11 1019.02 1018.84 1018.62 1018.60 1018.59 1018.56 1018.41 1018.18 1017.95 1017.70 1017.56 1017.34 1017.05 1016.76 1016.47 1016.11
1015.53 1017.72 1018.78 1019.02 1019.16 1018.22 1017.38 1016.61 1016.34 1016.69 1016.99 1017.17 1016.93 1017.18 1017.86 1017.89 1018.09 1018.35 1018.50 1018.33 1018.45 1018.73 1018.81 1018.96 1018.90 1018.78 1018.79 1019.03 1019.17 1019.28 1019.22 1019.29 1019.25 1019.12 1018.89 1018.45 1018.46 1018.53 1018.48 1018.33 1018.11 1017.89 1017.64 1017.48 1017.15 1016.82 1016.57 1016.33 1016.01
1015.99 1017.51 1019.14 1018.89 1018.55 1017.82 1017.09 1017.26 1017.11 1016.76 1017.27 1017.15 1016.92 1017.33 1018.33 1018.47 1018.41 1018.55 1018.83 1019.17 1019.44 1019.66 1019.58 1019.48 1019.27 1019.19 1019.19 1019.41 1019.51 1019.57 1019.39 1019.44 1019.30 1019.23 1019.17 1018.96 1018.99 1018.82 1018.30 1018.21 1018.01 1017.77 1017.62 1017.37 1017.16 1016.84 1016.64 1016.21 1016.08
1015.44 1017.19 1018.04 1017.91 1018.03 1017.33 1017.07 1016.88 1017.06 1016.70 1017.00 1017.13 1017.17 1017.56 1018.01 1018.52 1018.54 1018.76 1019.14 1019.40 1019.70 1019.95 1019.95 1019.87 1019.79 1019.53 1019.52 1019.56 1019.73 1019.73 1019.68 1019.66 1019.50 1019.56 1019.44 1019.39 1019.32 1019.02 1018.73 1018.50 1018.16 1018.08 1017.67 1017.39 1017.11 1016.81 1016.69 1016.31 1016.15
1015.09 1016.80 1016.37 1016.29 1016.07 1016.37 1016.41 1015.91 1016.42 1016.95 1017.25 1017.45 1017.61 1017.98 1018.31 1018.58 1018.83 1019.40 1019.88 1020.31 1020.45 1020.58 1020.48 1020.27 1020.05 1019.92 1019.76 1019.50 1019.97 1020.21 1020.09 1020.03 1019.81 1019.82 1019.75 1019.61 1019.53 1019.20 1018.80 1018.72 1018.48 1018.01 1017.80 1017.55 1017.34 1017.12 1016.88 1016.61 1016.45
1014.61 1015.15 1015.19 1015.18 1015.21 1015.64 1015.96 1016.22 1016.33 1016.55 1017.17 1016.84 1017.32 1017.91 1018.48 1018.89 1019.31 1019.76 1020.37 1020.57 1020.60 1020.61 1020.57 1020.45 1020.27 1020.13 1020.11 1020.20 1020.41 1020.47 1020.36 1020.13 1020.11 1019.98 1019.95 1019.86 1019.74 1019.51 1019.25 1019.06 1018.83 1018.50 1018.03 1018.00 1017.78 1017.55 1017.30 1016.98 1016.68
1014.54 1014.49 1014.48 1014.64 1015.12 1015.67 1015.74 1016.16 1016.51 1016.39 1016.45 1016.71 1017.35 1017.88 1018.39 1019.05 1019.70 1020.10 1020.49 1020.75 1020.71 1020.79 1020.78 1020.52 1020.29 1020.29 1020.31 1020.31 1020.27 1020.21 1020.41 1020.39 1020.46 1020.36 1020.25 1020.27 1020.14 1019.81 1019.54 1019.38 1019.16 1018.75 1018.50 1018.34 1018.20 1018.08 1017.68 1017.16 1016.74
1014.23 1014.34 1014.10 1014.30 1014.65 1015.09 1015.42 1015.75 1016.03 1016.51 1016.45 1016.92 1017.54 1018.02 1018.63 1019.22 1019.77 1020.16 1020.39 1020.72 1020.81 1020.96 1020.90 1020.65 1020.25 1020.35 1020.33 1020.23 1020.23 1020.27 1020.41 1020.54 1020.55 1020.44 1020.46 1020.35 1020.31 1020.11 1019.73 1019.59 1019.39 1019.00 1018.81 1018.72 1018.53 1018.20 1017.79 1017.40 1016.92
1014.28 1014.15 1014.45 1014.32 1014.64 1014.89 1015.60 1016.25 1015.98 1016.66 1016.59 1017.16 1017.41 1017.73 1018.27 1018.91 1019.45 1020.12 1020.48 1020.70 1020.73 1020.92 1020.90 1020.73 1020.50 1020.38 1020.28 1020.33 1020.30 1020.34 1020.54 1020.67 1020.57 1020.51 1020.44 1020.28 1020.29 1020.17 1020.07 1019.99 1019.71 1019.36 1019.12 1018.90 1018.68 1018.37 1018.01 1017.62 1017.19
1014.20 1014.54 1014.61 1014.49 1014.69 1015.16 1015.59 1016.58 1016.21 1016.38 1016.56 1017.10 1017.39 1017.73 1018.31 1018.78 1019.23 1019.54 1020.00 1020.48 1020.63 1020.75 1020.78 1020.65 1020.54 1020.43 1020.53 1020.58 1020.40 1020.29 1020.48 1020.65 1020.61 1020.54 1020.34 1020.30 1020.25 1020.17 1020.11 1020.10 1019.95 1019.73 1019.32 1019.00 1018.71 1018.40 1018.00 1017.76 1017.17
1014.59 1014.91 1015.08 1014.59 1014.31 1014.86 1014.96 1015.56 1015.82 1015.99 1016.33 1016.83 1017.09 1017.51 1018.02 1018.42 1018.80 1019.31 1019.65 1020.07 1020.46 1020.47 1020.58 1020.45 1020.25 1020.40 1020.44 1020.40 1020.40 1020.25 1020.30 1020.40 1020.46 1020.43 1020.31 1020.29 1020.20 1020.21 1020.20 1020.15 1020.09 1019.76 1019.45 1019.27 1019.03 1018.85 1018.46 1018.13 1017.75
1015.22 1015.21 1015.28 1014.62 1014.02 1014.50 1015.04 1015.14 1015.42 1015.65 1015.89 1016.52 1016.96 1017.21 1017.85 1018.39 1018.86 1019.17 1019.33 1019.65 1020.07 1020.28 1020.42 1020.38 1020.36 1020.49 1020.55 1020.32 1020.37 1020.20 1020.43 1020.44 1020.40 1020.34 1020.28 1020.30 1020.26 1020.24 1020.34 1020.42 1020.29 1019.88 1019.63 1019.47 1019.31 1019.12 1018.89 1018.63 1018.11
1015.00 1014.51 1014.61 1014.50 1013.54 1014.08 1014.62 1014.61 1015.10 1015.53 1015.87 1016.01 1016.38 1016.83 1017.26 1017.74 1018.14 1018.64 1019.14 1019.52 1019.75 1020.01 1020.13 1020.18 1020.34 1020.48 1020.43 1020.29 1020.19 1020.25 1020.48 1020.49 1020.43 1020.46 1020.31 1020.22 1020.19 1020.20 1020.17 1020.16 1020.25 1020.07 1019.99 1019.85 1019.49 1019.33 1019.00 1018.73 1018.35
1013.12 1013.50 1013.75 1013.18 1013.12 1013.98 1014.88 1014.79 1014.93 1015.03 1015.53 1015.73 1015.88 1015.94 1016.46 1017.01 1017.70 1018.38 1018.81 1019.29 1019.69 1019.92 1020.01 1019.96 1020.13 1020.32 1020.43 1020.49 1020.49 1020.70 1020.70 1020.76 1020.78 1020.50 1020.14 1020.09 1020.14 1020.09 1020.20 1020.22 1020.10 1020.17 1020.28 1020.09 1019.80 1019.50 1019.36 1018.83 1018.41
1012.11 1013.13 1013.43 1013.08 1012.44 1013.56 1014.37 1014.19 1014.53 1014.90 1014.53 1014.56 1015.04 1015.35 1015.74 1016.87 1017.60 1018.17 1018.60 1019.04 1019.29 1019.50 1019.79 1019.92 1019.92 1020.08 1020.21 1020.28 1020.23 1020.31 1020.44 1020.61 1020.46 1020.36 1020.28 1020.15 1019.99 1020.01 1020.09 1020.21 1020.29 1020.20 1020.26 1020.22 1020.03 1019.82 1019.81 1019.53 1019.12
1010.93 1011.54 1012.32 1012.50 1012.98 1013.86 1014.21 1014.89 1015.30 1015.78 1015.76 1015.62 1015.61 1014.94 1015.12 1015.75 1016.64 1017.55 1018.10 1018.44 1018.86 1019.14 1019.24 1019.50 1019.60 1019.59 1019.82 1020.07 1020.24 1020.29 1020.38 1020.54 1020.73 1020.72 1020.53 1020.37 1020.14 1020.07 1020.08 1020.18 1020.19 1020.21 1020.15 1020.34 1020.19 1019.96 1019.94 1019.92 1019.38
1010.25 1010.63 1011.74 1012.60 1013.33 1014.69 1015.08 1016.63 1016.44 1016.61 1015.66 1015.54 1015.31 1015.40 1014.98 1015.16 1015.71 1016.40 1017.43 1017.99 1018.29 1018.71 1019.09 1019.44 1019.71 1019.76 1019.69 1019.72 1020.12 1020.42 1020.63 1020.93 1020.88 1020.53 1020.57 1020.24 1020.13 1020.12 1020.10 1020.12 1020.08 1020.10 1020.23 1020.20 1020.04 1019.90 1019.87 1019.90 1019.94
1009.78 1010.53 1011.55 1012.84 1014.01 1015.33 1016.15 1016.63 1016.71 1016.35 1014.78 1014.40 1014.58 1014.59 1014.51 1014.38 1015.02 1015.75 1016.56 1017.28 1017.90 1018.58 1019.23 1019.20 1019.53 1019.83 1019.63 1019.60 1019.81 1020.30 1020.73 1020.75 1020.61 1020.67 1020.58 1020.38 1020.45 1020.19 1020.07 1020.02 1019.91 1019.96 1020.11 1020.03 1019.85 1019.71 1019.74 1019.81 1019.84
1009.79 1011.25 1012.36 1013.74 1015.12 1016.30 1016.51 1016.78 1016.25 1016.21 1014.98 1014.21 1013.76 1012.65 1013.32 1013.57 1014.84 1015.32 1015.78 1016.78 1017.62 1018.37 1018.92 1019.34 1019.45 1019.66 1019.52 1019.44 1019.69 1020.08 1020.51 1020.73 1020.82 1020.75 1020.93 1020.78 1020.63 1020.42 1020.26 1020.06 1019.74 1019.67 1019.78 1019.85 1019.67 1019.48 1019.51 1019.54 1019.55
1010.10 1012.02 1014.09 1015.41 1016.18 1016.87 1016.45 1016.38 1015.23 1014.42 1014.04 1013.00 1011.68 1011.35 1011.47 1012.85 1013.83 1014.79 1015.33 1016.27 1016.84 1017.47 1018.44 1018.70 1018.74 1019.44 1019.66 1019.60 1019.50 1019.71 1020.10 1020.32 1020.47 1020.60 1020.67 1020.94 1020.72 1020.53 1020.22 1020.06 1019.73 1019.65 1019.45 1019.36 1019.25 1019.28 1019.25 1019.23 1019.30
1011.03 1012.78 1014.76 1015.94 1016.99 1017.13 1016.39 1015.87 1014.51 1013.56 1012.79 1012.39 1011.57 1011.27 1011.42 1012.22 1013.19 1014.01 1014.24 1015.01 1015.99 1016.93 1017.87 1018.11 1018.51 1018.99 1019.29 1019.33 1019.39 1019.50 1019.81 1020.21 1020.37 1020.42 1020.50 1020.43 1020.28 1020.04 1019.76 1019.65 1019.56 1019.22 1019.13 1018.86 1018.78 1018.87 1018.94 1018.84 1018.81
1011.98 1013.41 1014.34 1015.38 1016.21 1017.06 1016.31 1015.16 1014.29 1013.80 1013.31 1012.65 1013.11 1013.78 1013.74 1013.83 1014.10 1013.68 1013.87 1014.62 1015.60 1016.52 1017.06 1017.17 1017.86 1018.45 1018.66 1018.98 1019.09 1019.27 1019.33 1019.85 1020.07 1020.11 1020.14 1020.01 1019.90 1019.61 1019.46 1019.29 1019.15 1018.96 1018.71 1018.48 1018.32 1018.42 1018.38 1018.38 1018.29
1011.70 1013.33 1014.26 1015.53 1017.18 1017.35 1016.28 1015.45 1014.67 1014.21 1014.03 1013.83 1014.88 1015.50 1014.74 1014.21 1014.07 1014.61 1015.91 1016.04 1016.58 1016.25 1016.18 1016.66 1017.04 1017.40 1018.04 1018.53 1018.70 1018.72 1018.72 1019.16 1019.58 1019.71 1019.74 1019.66 1019.50 1019.36 1019.16 1018.91 1018.73 1018.70 1018.53 1018.32 1018.32 1018.18 1017.98 1018.02 1017.87
1012.36 1013.45 1014.89 1015.90 1017.13 1017.47 1017.05 1015.32 1013.58 1013.46 1013.71 1014.60 1015.70 1015.64 1015.16 1014.36 1013.95 1013.88 1014.19 1016.26 1016.68 1016.50 1016.94 1016.81 1017.15 1017.37 1017.88 1017.95 1018.27 1018.43 1018.43 1018.79 1019.26 1019.35 1019.31 1019.14 1018.99 1018.91 1018.85 1018.62 1018.38 1018.19 1018.04 1017.98 1017.91 1017.68 1017.46 1017.42 1017.17
1011.37 1012.84 1014.39 1015.84 1016.89 1017.10 1016.95 1015.34 1014.18 1013.96 1014.36 1015.01 1015.48 1015.87 1015.30 1014.88 1014.96 1014.90 1014.85 1014.94 1016.26 1016.86 1017.96 1017.41 1017.50 1017.27 1017.21 1017.31 1017.94 1018.22 1018.07 1018.42 1018.93 1018.94 1018.81 1018.69 1018.61 1018.48 1018.32 1018.07 1017.86 1017.70 1017.46 1017.31 1017.15 1017.04 1016.75 1016.67 1016.54
Wind_Speed
2 1 1 2 4 6 4 3 6 5 8 10 10 12 9 7 2 5 2 6 10 9 8 8 9 8 8 7 6 6 5 6 7 8 9 9 9 10 10 11 12 12 12 12 12 11 11 10 10
5 3 4 3 6 3 3 4 15 14 12 14 17 13 13 11 8 9 5 7 9 8 6 6 9 8 8 6 5 5 5 6 7 9 9 10 10 10 11 12 12 13 12 12 11 12 12 12 13
5 9 6 5 1 2 6 6 13 7 5 2 5 6 4 2 6 6 6 11 9 7 5 5 7 6 6 5 4 4 6 7 9 9 8 8 8 9 10 11 12 12 11 11 12 12 12 11 10
4 6 6 5 5 8 7 13 17 14 7 10 10 7 4 5 3 8 12 7 4 5 6 6 5 5 4 3 6 6 7 8 8 7 8 8 8 8 8 7 10 13 13 11 11 11 11 11 12
4 5 6 5 5 8 11 11 11 9 7 8 10 8 5 4 10 12 8 5 6 2 5 5 4 5 4 4 8 10 9 9 10 10 9 7 6 5 4 5 9 10 11 10 10 10 11 12 12
7 5 3 3 5 10 3 6 7 13 8 9 11 7 3 7 12 7 6 4 4 5 5 5 5 5 4 10 10 11 11 11 11 12 11 8 1 1 2 4 7 8 9 11 12 12 12 13 14
8 4 6 4 2 2 5 6 5 6 5 4 3 5 4 14 14 12 8 9 8 6 6 4 1 6 9 12 11 12 12 11 11 13 15 17 3 4 6 7 8 9 11 12 14 15 10 10 13
5 5 4 3 3 5 3 1 2 2 3 3 2 3 5 6 8 10 10 11 10 7 6 4 4 4 5 5 10 10 13 13 13 15 15 15 14 12 17 4 8 13 12 14 16 16 13 13 14
7 4 5 6 7 5 2 5 1 4 7 1 3 5 12 10 10 11 8 8 7 8 7 6 5 4 4 6 5 8 12 11 12 12 15 9 5 6 9 12 14 13 13 15 16 15 15 14 14
6 3 8 6 8 9 7 14 9 6 3 1 10 11 11 12 11 11 8 7 6 5 5 6 7 6 4 3 4 3 6 3 5 6 6 4 6 6 8 11 13 15 18 18 18 16 17 15 6
5 7 7 5 6 6 12 10 4 13 5 11 16 11 11 13 10 11 7 6 6 4 4 6 6 6 7 4 2 1 2 3 4 6 6 5 5 5 4 4 4 4 11 5 8 7 5 7 6
6 6 8 6 7 8 12 10 5 5 7 8 13 14 11 11 8 9 8 6 6 6 2 4 6 5 4 3 3 3 3 2 3 3 5 4 3 4 4 3 5 4 4 6 5 3 6 7 8
5 5 4 11 10 7 8 9 7 4 12 13 14 10 10 9 8 6 8 6 6 7 2 2 6 5 4 5 4 3 4 3 2 4 4 3 4 5 4 4 4 4 4 5 5 5 5 6 8
2 4 2 7 10 10 11 5 7 5 12 14 13 11 11 13 11 6 7 7 6 5 4 3 4 4 4 3 3 2 4 4 3 3 2 4 3 3 4 4 4 4 4 4 4 4 5 5 5
3 5 5 6 7 5 13 2 5 11 10 13 12 12 11 12 13 12 9 8 8 4 5 6 4 2 3 1 1 2 4 4 4 2 4 4 4 5 5 4 4 3 4 5 5 6 5 5 6
5 6 3 4 8 8 6 7 9 13 14 12 12 14 14 15 14 11 11 9 7 6 6 6 4 4 1 2 2 2 4 4 4 2 4 5 4 6 5 4 4 3 4 4 4 4 5 5 5
7 1 1 8 7 7 6 4 13 16 15 13 13 13 13 10 7 9 12 12 9 8 7 5 4 3 2 4 4 4 4 4 4 3 3 4 4 5 4 3 3 3 4 4 3 3 3 3 5
6 4 3 6 4 8 7 8 15 16 15 14 13 13 14 14 14 12 13 10 9 8 7 7 4 2 2 0 2 2 2 3 3 3 3 5 3 4 3 3 4 3 4 4 3 3 3 2 4
7 3 4 8 6 4 6 8 16 17 14 10 12 14 13 15 11 12 13 11 9 7 7 7 7 3 1 0 2 1 2 1 1 3 5 5 4 4 3 3 4 3 4 3 4 3 4 4 7
6 6 8 8 6 7 6 9 13 16 19 18 16 15 14 11 11 13 13 12 12 10 8 7 7 5 2 2 1 1 2 1 2 3 3 4 4 4 3 3 3 3 3 5 4 4 3 2 4
6 8 3 4 3 4 2 5 4 2 6 8 10 16 13 16 18 16 15 14 12 12 11 9 8 8 5 4 1 2 2 3 2 1 2 2 3 4 4 3 4 3 3 2 2 2 4 3 3
2 2 6 4 2 2 3 2 4 6 9 10 12 12 8 14 17 17 15 13 14 12 9 8 7 7 5 5 4 2 2 1 3 2 1 3 4 4 4 3 4 3 1 1 2 2 2 2 3
5 5 3 4 5 3 5 5 6 2 13 15 9 10 10 16 19 19 18 16 13 10 8 8 7 7 6 6 6 5 3 2 1 2 3 4 2 3 4 3 3 3 1 2 3 2 2 0 1
6 2 10 6 3 4 3 4 4 6 10 6 11 17 14 16 15 15 14 12 10 8 8 7 8 7 7 7 6 6 4 3 1 2 3 1 2 1 2 3 3 3 2 2 2 3 2 2 2
6 8 5 6 6 5 5 2 8 5 11 17 15 8 18 15 18 15 17 13 13 13 11 9 9 8 7 7 7 7 6 4 2 3 2 3 2 2 5 4 4 3 3 4 3 2 3 4 3
6 7 5 2 3 3 5 4 5 6 7 6 8 5 7 14 17 17 18 16 16 14 12 12 11 8 8 8 8 6 6 3 3 3 4 3 3 4 5 6 5 5 5 5 4 3 4 5 4
3 5 3 5 5 2 4 6 1 5 6 7 9 18 12 8 4 16 16 15 14 12 16 14 12 8 9 8 7 7 6 5 6 6 4 3 4 3 6 5 6 6 6 7 5 4 5 4 5
6 4 3 4 2 5 6 4 5 5 6 4 13 5 7 4 8 8 6 4 5 12 15 12 13 13 9 8 7 7 8 7 6 5 7 6 6 4 5 6 5 5 7 6 5 5 6 5 5
1 2 6 4 5 4 3 7 7 5 8 4 7 4 5 3 8 10 8 4 6 9 9 7 9 8 7 9 7 7 7 7 6 6 7 7 6 7 7 7 7 6 6 6 6 7 8 7 7
5 6 6 6 4 2 5 9 6 5 7 8 3 3 7 7 8 8 7 10 7 9 4 6 5 8 11 9 7 8 7 6 6 7 7 6 7 6 7 7 7 7 7 7 7 7 7 8 9
Wind_Direction
174 220 266 76 72 56 330 97 141 112 57 57 72 78 86 49 93 164 0 129 154 166 178 166 158 144 127 110 88 73 57 46 38 33 28 31 35 37 34 26 15 7 2 357 347 342 337 330 320
166 114 43 16 62 93 263 145 90 105 125 107 89 81 60 71 76 116 96 199 187 160 173 157 159 145 123 113 99 74 54 39 35 36 27 35 41 37 35 27 20 10 0 353 349 355 349 343 337
171 84 71 65 90 296 126 111 118 99 90 83 83 43 61 75 76 152 192 175 178 149 138 147 136 128 113 106 88 66 48 43 42 41 40 47 47 50 45 34 18 3 355 354 349 352 351 340 331
352 30 44 69 355 292 128 120 111 112 85 106 123 59 40 101 91 163 169 185 124 79 62 70 112 109 103 104 88 71 60 55 48 43 47 47 51 58 45 34 12 7 358 348 342 338 337 332 327
44 57 37 16 337 13 79 111 112 104 89 72 97 115 99 59 111 135 160 134 120 107 60 82 131 145 144 108 95 86 73 59 53 50 43 43 50 47 42 10 15 23 17 11 4 353 339 334 325
56 83 51 309 355 360 10 117 94 79 80 98 96 109 139 81 95 145 109 133 116 106 72 84 146 143 131 106 100 95 88 77 61 38 25 352 317 10 320 315 352 8 4 354 354 347 340 334 328
112 108 173 170 238 289 256 303 68 99 101 49 139 101 79 99 104 99 84 60 55 94 79 72 76 127 114 110 115 117 105 80 56 37 32 21 133 328 295 267 314 350 0 344 341 345 9 18 359
82 74 126 207 176 251 250 131 56 96 71 144 344 122 127 111 99 90 84 92 91 86 66 47 35 62 105 104 134 118 92 69 62 45 36 40 29 12 18 21 335 347 5 13 11 9 5 6 357
122 73 150 183 151 230 176 152 21 29 107 4 83 88 117 119 96 78 64 55 57 54 57 68 50 43 130 130 144 106 95 79 64 47 37 41 18 3 23 8 43 16 18 13 6 10 2 355 351
93 109 212 184 167 181 185 126 153 122 115 98 95 107 114 104 93 88 80 64 63 58 46 56 43 41 53 163 73 73 88 73 63 58 37 30 24 5 24 24 19 16 15 9 8 13 12 1 339
170 175 173 207 176 178 155 135 140 144 176 168 146 130 124 111 97 94 89 101 99 95 66 54 55 48 54 64 107 115 128 65 50 59 53 31 13 2 11 360 357 359 21 21 11 2 2 356 352
50 14 143 166 190 164 148 144 136 181 186 147 132 127 115 109 120 124 114 106 92 79 97 80 65 58 65 97 70 78 94 91 61 32 53 38 8 10 2 12 349 360 11 16 4 350 343 349 346
80 1 60 138 128 126 124 139 133 110 121 121 129 123 131 132 135 125 124 117 108 91 83 49 75 59 25 37 70 56 102 104 99 63 43 49 21 15 357 11 348 21 19 16 357 352 351 339 340
168 117 160 135 147 133 131 152 116 192 137 140 143 156 153 148 152 137 135 137 118 120 117 176 107 88 64 49 104 102 106 137 98 79 76 73 46 27 23 11 353 28 29 1 347 356 341 332 335
62 90 16 142 153 126 115 231 191 167 162 160 165 168 152 164 163 164 160 147 149 158 147 159 134 119 119 122 207 128 116 147 107 115 79 75 46 42 48 26 14 26 22 12 3 357 349 352 353
31 63 46 219 152 167 120 242 181 175 177 183 180 171 168 180 174 159 154 151 168 158 151 136 139 179 257 246 226 241 122 157 148 143 92 82 54 54 49 37 22 21 21 20 1 358 351 355 351
346 21 150 310 206 139 198 246 183 180 186 198 187 186 175 175 168 167 158 163 167 168 165 150 159 175 272 270 243 229 117 159 162 134 108 103 74 65 75 43 21 33 33 20 358 351 2 344 330
207 207 225 231 273 183 201 240 181 191 199 203 192 193 182 182 187 173 166 164 164 170 164 160 170 191 295 260 116 106 113 181 134 157 134 136 123 88 83 57 45 50 30 10 3 15 334 301 310
182 322 156 264 213 107 267 251 191 192 206 214 208 193 185 190 184 171 172 169 166 165 168 168 165 188 137 235 114 87 174 169 172 200 171 150 147 121 94 57 59 69 39 356 8 352 349 323 350
170 172 217 251 93 134 214 253 190 195 204 211 203 204 187 178 167 175 177 176 180 173 179 181 175 170 156 154 208 179 224 189 188 190 208 168 151 131 109 97 71 91 52 17 18 29 348 325 13
250 131 212 186 97 31 299 35 76 9 335 297 264 213 200 177 178 180 185 185 182 182 180 180 184 174 168 166 87 11 18 55 25 274 268 234 166 133 114 119 108 130 84 20 332 19 49 360 325
54 164 168 165 95 7 354 313 18 336 292 289 266 239 205 191 187 179 186 195 189 189 178 171 180 184 173 138 122 143 129 142 222 232 200 206 165 149 133 137 114 138 108 22 306 7 44 65 9
207 133 123 82 85 94 2 78 276 157 260 249 262 236 213 195 185 186 190 198 191 172 184 179 171 190 174 159 146 135 149 209 284 315 18 113 163 166 166 166 141 127 208 248 265 328 357 312 155
121 143 36 52 55 32 245 154 236 185 229 298 257 220 203 194 193 195 191 184 167 171 174 187 175 196 192 167 161 158 177 198 280 342 77 231 210 222 258 228 169 195 208 245 243 257 252 254 255
87 46 356 1 2 231 229 50 248 215 234 232 239 247 209 181 190 187 187 172 174 172 181 195 176 194 199 185 178 181 194 196 228 262 201 175 224 240 240 237 213 215 227 217 205 245 262 251 247
79 116 155 354 312 288 273 284 270 220 230 247 4 354 183 181 188 190 184 178 178 174 191 192 182 188 193 190 191 187 191 180 207 193 205 219 201 203 222 231 240 219 229 244 219 209 243 248 246
15 43 249 111 160 18 232 282 244 302 324 322 14 40 25 16 286 183 187 183 175 168 207 195 179 188 190 198 180 189 188 178 199 223 225 215 238 241 224 239 231 246 242 242 244 251 245 235 249
120 171 17 16 346 322 287 294 250 262 267 309 50 30 8 48 110 73 17 234 162 208 210 191 178 185 185 191 189 190 190 201 212 212 231 234 244 250 263 268 255 266 263 268 257 255 260 253 263
60 50 44 111 138 186 309 282 238 193 213 231 91 345 23 113 108 127 151 325 270 236 237 184 179 163 178 198 194 196 192 203 217 218 231 232 233 236 248 255 261 258 261 267 250 250 255 254 257
158 160 148 127 229 188 149 275 342 7 71 113 154 124 60 128 81 97 133 236 236 228 266 211 190 178 197 193 196 205 197 196 214 223 234 233 231 239 242 250 254 259 254 255 249 250 251 246 258